• In Austria
  • List of Countries
  • For 7 days
  • Water Temperature
  • Satellite Maps
  • Weather Map
  • News
  • Weather Widgets
  • user-avatar
    Login

    Hourly Weather Gweru

    Today, 18 October, Wednesday

    Time Temperature Precipitation Wind Pressure Humidity
    00:00 +27°C° 0 mm 2 mps 644 mmHg 14%
    01:00 +26°C° 0 mm 2 mps 644 mmHg 14%
    02:00 +25°C° 0 mm 2 mps 643 mmHg 15%
    03:00 +24°C° 0 mm 3 mps 643 mmHg 16%
    04:00 +24°C° 0 mm 3 mps 643 mmHg 17%
    05:00 +22°C° 0 mm 4 mps 643 mmHg 19%
    06:00 +23°C° 0 mm 4 mps 644 mmHg 28%
    07:00 +23°C° 0 mm 5 mps 645 mmHg 38%
    08:00 +25°C° 0 mm 5 mps 645 mmHg 44%
    09:00 +27°C° 0 mm 5 mps 645 mmHg 41%
    10:00 +29°C° 0 mm 5 mps 646 mmHg 37%
    11:00 +32°C° 0 mm 5 mps 646 mmHg 34%
    12:00 +33°C° 0 mm 5 mps 646 mmHg 30%
    13:00 +35°C° 0 mm 4 mps 645 mmHg 27%
    14:00 +36°C° 0 mm 4 mps 645 mmHg 23%
    15:00 +34°C° 0 mm 4 mps 645 mmHg 27%
    16:00 +33°C° 0 mm 5 mps 644 mmHg 32%
    17:00 +30°C° 0 mm 5 mps 643 mmHg 36%
    18:00 +28°C° 0 mm 5 mps 643 mmHg 44%
    19:00 +26°C° 0 mm 5 mps 643 mmHg 52%
    20:00 +22°C° 0 mm 5 mps 643 mmHg 60%
    21:00 +22°C° 0 mm 5 mps 643 mmHg 62%
    22:00 +21°C° 0 mm 4 mps 644 mmHg 65%
    23:00 +20°C° 0 mm 4 mps 644 mmHg 67%

    Tomorrow, 19 October, Thursday

    Time Temperature Precipitation Wind Pressure Humidity
    00:00 +20°C° 0 mm 3 mps 644 mmHg 69%
    01:00 +19°C° 0 mm 3 mps 643 mmHg 71%
    02:00 +19°C° 0 mm 2 mps 643 mmHg 73%
    03:00 +19°C° 0 mm 2 mps 643 mmHg 75%
    04:00 +18°C° 0 mm 2 mps 642 mmHg 76%
    05:00 +18°C° 0 mm 2 mps 642 mmHg 77%
    06:00 +21°C° 0 mm 2 mps 643 mmHg 65%
    07:00 +24°C° 0 mm 2 mps 644 mmHg 53%
    08:00 +27°C° 0 mm 3 mps 645 mmHg 41%
    09:00 +30°C° 0 mm 3 mps 646 mmHg 33%
    10:00 +34°C° 0 mm 3 mps 646 mmHg 24%
    11:00 +37°C° 0 mm 4 mps 647 mmHg 16%
    12:00 +38°C° 0 mm 3 mps 646 mmHg 14%
    13:00 +39°C° 0 mm 2 mps 646 mmHg 12%
    14:00 +40°C° 0 mm 2 mps 645 mmHg 10%
    15:00 +39°C° 0 mm 1 mps 645 mmHg 11%
    16:00 +36°C° 0 mm 1 mps 644 mmHg 12%
    17:00 +33°C° 0 mm 0 mps 644 mmHg 13%
    18:00 +34°C° 0 mm 1 mps 644 mmHg 14%
    19:00 +33°C° 0 mm 1 mps 644 mmHg 16%
    20:00 +31°C° 0 mm 2 mps 645 mmHg 17%
    21:00 +31°C° 0 mm 2 mps 645 mmHg 18%
    22:00 +30°C° 0 mm 2 mps 645 mmHg 20%
    23:00 +30°C° 0 mm 3 mps 646 mmHg 21%

    Day after tomorrow, 20 October, Friday

    Time Temperature Precipitation Wind Pressure Humidity
    00:00 +29°C° 0 mm 2 mps 645 mmHg 24%
    01:00 +28°C° 0 mm 2 mps 645 mmHg 28%
    02:00 +26°C° 0 mm 2 mps 644 mmHg 31%
    03:00 +26°C° 0 mm 2 mps 644 mmHg 33%
    04:00 +25°C° 0 mm 2 mps 644 mmHg 35%
    05:00 +25°C° 0 mm 1 mps 643 mmHg 37%
    06:00 +27°C° 0 mm 2 mps 644 mmHg 32%
    07:00 +29°C° 0 mm 3 mps 646 mmHg 27%
    08:00 +33°C° 0 mm 4 mps 647 mmHg 22%
    09:00 +34°C° 0 mm 4 mps 647 mmHg 20%
    10:00 +35°C° 0 mm 4 mps 647 mmHg 19%
    11:00 +36°C° 0 mm 4 mps 647 mmHg 17%
    12:00 +36°C° 0 mm 3 mps 647 mmHg 16%
    13:00 +36°C° 0 mm 3 mps 646 mmHg 16%
    14:00 +36°C° 0 mm 3 mps 646 mmHg 16%
    15:00 +36°C° 0 mm 3 mps 645 mmHg 17%
    16:00 +35°C° 0 mm 4 mps 645 mmHg 18%
    17:00 +35°C° 0 mm 4 mps 645 mmHg 19%
    18:00 +33°C° 0 mm 4 mps 645 mmHg 23%
    19:00 +30°C° 0 mm 3 mps 645 mmHg 28%
    20:00 +28°C° 0 mm 2 mps 646 mmHg 32%
    21:00 +27°C° 0 mm 3 mps 646 mmHg 42%
    22:00 +26°C° 0 mm 4 mps 646 mmHg 51%
    23:00 +25°C° 0 mm 4 mps 646 mmHg 60%

    21 October, Saturday

    Time Temperature Precipitation Wind Pressure Humidity
    00:00 +23°C° 0 mm 4 mps 645 mmHg 66%
    01:00 +22°C° 0 mm 4 mps 645 mmHg 72%
    02:00 +21°C° 0 mm 4 mps 644 mmHg 79%
    03:00 +21°C° 0 mm 4 mps 645 mmHg 80%
    04:00 +21°C° 0 mm 4 mps 645 mmHg 82%
    05:00 +20°C° 0 mm 4 mps 645 mmHg 83%
    06:00 +21°C° 0 mm 4 mps 646 mmHg 78%
    07:00 +22°C° 0 mm 5 mps 647 mmHg 73%
    08:00 +23°C° 0 mm 5 mps 647 mmHg 67%
    09:00 +27°C° 0 mm 5 mps 648 mmHg 56%
    10:00 +30°C° 0 mm 4 mps 648 mmHg 45%
    11:00 +34°C° 0 mm 4 mps 649 mmHg 33%
    12:00 +35°C° 0 mm 4 mps 648 mmHg 28%
    13:00 +36°C° 0 mm 4 mps 648 mmHg 24%
    14:00 +37°C° 0 mm 4 mps 647 mmHg 19%
    15:00 +36°C° 0 mm 5 mps 647 mmHg 21%
    16:00 +35°C° 0 mm 5 mps 647 mmHg 24%
    17:00 +34°C° 0 mm 6 mps 646 mmHg 26%
    18:00 +32°C° 0.6 mm 6 mps 646 mmHg 35%
    19:00 +29°C° 0.6 mm 6 mps 646 mmHg 43%
    20:00 +27°C° 0.6 mm 6 mps 647 mmHg 51%
    21:00 +26°C° 0 mm 6 mps 647 mmHg 53%
    22:00 +26°C° 0 mm 5 mps 647 mmHg 54%
    23:00 +25°C° 0 mm 4 mps 647 mmHg 56%

    22 October, Sunday

    Time Temperature Precipitation Wind Pressure Humidity
    00:00 +25°C° 0 mm 4 mps 646 mmHg 57%
    01:00 +24°C° 0 mm 3 mps 646 mmHg 58%
    02:00 +24°C° 0 mm 2 mps 646 mmHg 60%
    03:00 +22°C° 0 mm 3 mps 646 mmHg 63%
    04:00 +22°C° 0 mm 3 mps 646 mmHg 66%
    05:00 +21°C° 0 mm 3 mps 646 mmHg 70%
    06:00 +22°C° 0 mm 4 mps 647 mmHg 64%
    07:00 +23°C° 0 mm 4 mps 648 mmHg 58%
    08:00 +25°C° 0 mm 4 mps 649 mmHg 52%
    09:00 +28°C° 0 mm 4 mps 649 mmHg 41%
    10:00 +30°C° 0 mm 4 mps 649 mmHg 29%
    11:00 +34°C° 0 mm 4 mps 650 mmHg 18%
    12:00 +35°C° 0 mm 4 mps 649 mmHg 15%
    13:00 +36°C° 0 mm 4 mps 648 mmHg 13%
    14:00 +36°C° 0 mm 4 mps 648 mmHg 11%
    15:00 +36°C° 0 mm 4 mps 647 mmHg 11%
    16:00 +35°C° 0 mm 4 mps 647 mmHg 11%
    17:00 +35°C° 0 mm 5 mps 647 mmHg 12%
    18:00 +33°C° 0 mm 4 mps 647 mmHg 14%
    19:00 +30°C° 0 mm 4 mps 647 mmHg 17%
    20:00 +28°C° 0 mm 3 mps 647 mmHg 19%
    21:00 +27°C° 0 mm 3 mps 647 mmHg 22%
    22:00 +26°C° 0 mm 3 mps 647 mmHg 25%
    23:00 +25°C° 0 mm 3 mps 646 mmHg 27%

    23 October, Monday

    Time Temperature Precipitation Wind Pressure Humidity
    00:00 +24°C° 0 mm 2 mps 646 mmHg 31%
    01:00 +23°C° 0 mm 2 mps 645 mmHg 35%
    02:00 +23°C° 0 mm 2 mps 645 mmHg 39%
    03:00 +21°C° 0 mm 2 mps 645 mmHg 45%
    04:00 +21°C° 0 mm 2 mps 645 mmHg 50%
    05:00 +20°C° 0 mm 2 mps 645 mmHg 55%
    06:00 +23°C° 0 mm 2 mps 646 mmHg 50%
    07:00 +25°C° 0 mm 2 mps 647 mmHg 45%
    08:00 +27°C° 0 mm 3 mps 648 mmHg 40%
    09:00 +29°C° 0 mm 3 mps 648 mmHg 34%
    10:00 +31°C° 0 mm 3 mps 648 mmHg 28%
    11:00 +34°C° 0 mm 3 mps 648 mmHg 21%
    12:00 +35°C° 0 mm 3 mps 648 mmHg 19%
    13:00 +36°C° 0 mm 3 mps 647 mmHg 17%
    14:00 +36°C° 0 mm 3 mps 646 mmHg 15%
    15:00 +36°C° 0 mm 4 mps 646 mmHg 16%
    16:00 +35°C° 0 mm 4 mps 646 mmHg 16%
    17:00 +35°C° 0 mm 4 mps 646 mmHg 17%
    18:00 +33°C° 0 mm 3 mps 646 mmHg 20%
    19:00 +30°C° 0 mm 3 mps 646 mmHg 22%
    20:00 +28°C° 0 mm 2 mps 646 mmHg 25%
    21:00 +27°C° 0 mm 2 mps 646 mmHg 26%
    22:00 +27°C° 0 mm 2 mps 645 mmHg 27%
    23:00 +26°C° 0 mm 2 mps 645 mmHg 28%
    Show more